User: anonymous   Login
Location: Brno
(49.2000°N, 16.6330°E)
Time: 03:28:21
(UTC+01:00)
Language:

CARTOSAT-1 - Orbit

View from above orbital plane
View from above orbital plane
View from above satellite
View from above satellite

Ground track
Ground track

The orbit data is extracted from the following two-line orbital elements,

1 28649U 05017A   16337.46634864  .00000268  00000-0  39025-4 0  9992
2 28649  97.8837  48.7344 0001983   8.1859 351.9387 14.83448698626819
Epoch (UTC): 02 December 2016 11:11:32
Eccentricity: 0.0001983
inclination: 97.8837°
perigee height: 617 km
apogee height: 620 km
right ascension of ascending node: 48.7344°
argument of perigee: 8.1859°
revolutions per day: 14.83448698
mean anomaly at epoch: 351.9387°
orbit number at epoch: 62681

The dashed part of the orbit path shows where the satellite is in the earth's shadow,  

DLR